Hourly Weather Roundup
Issued by NWS Central Illinois

Home | Current Version | Previous Version | Graphics & Text | Print | Product List | Glossary On
Versions: 1 2 3 4 5 6 7 8 9 10 11 12 13 14 15 16 17 18 19 20 21 22 23 24 25 26 27 28 29 30 31 32 33 34 35 36 37 38 39 40 41 42 43 44 45 46 47 48 49 50
000
NZUS43 KILX 250210
HWRILX

AREA WEATHER ROUNDUP
NATIONAL WEATHER SERVICE, LINCOLN IL
900 PM CDT SUN MAY 24 2015


CITY           SKY/WX    TMP DP  RH WIND       PRES   REMARKS
BLOOMINGTON    PTCLDY    77  64  63 S18       29.93S
CHAMPAIGN      CLOUDY    79  62  56 SE18      29.95S HX  80
DANVILLE       PTCLDY    76  62  60 S13G21    29.96S
DECATUR        MOCLDY    79  62  56 S13       29.94R HX  80
EFFINGHAM      MOCLDY    77  60  55 SE10      29.98S
FLORA          MOCLDY    76  64  66 S14       29.98S
GALESBURG      CLOUDY    69  65  87 SE6       29.86F
JACKSONVILLE   CLOUDY    78  65  64 S13G22    29.88S HX  80
LACON          MOCLDY    76  62  62 S10       29.87F
LAWRENCEVILLE  NOT AVBL
LITCHFIELD     MOCLDY    76  62  63 SE10      29.92S
$$


CITY           SKY/WX    TMP DP  RH WIND       PRES   REMARKS
LINCOLN        MOCLDY    79  62  55 S14G20    29.88R HX  81
MACOMB         LGT RAIN  69  67  94 S8        29.90R
MATTOON        MOCLDY    77  63  61 S12G21    29.96S
MT CARMEL AP   MOCLDY    81  59  47 S12G17    30.00S HX  81
OLNEY-NOBLE AP PTCLDY    77  64  65 SE16G22   29.99R
PARIS          MOCLDY    76  62  61 SE15      30.00S
PEORIA         MOCLDY    79  62  56 S14       29.88S HX  80
PONTIAC        PTCLDY    79  63  58 S17       29.92F HX  81
RANTOUL        MOCLDY    80  63  55 S17G24    29.96S HX  81
ROBINSON       MOCLDY    77  62  59 SE9       30.01S
SPRINGFIELD    PTCLDY    79  63  57 S16       29.90R HX  80
TAYLORVILLE    PTCLDY    77  63  61 S14G21    29.92S
$$

...REGIONAL REPORTS...


CITY           SKY/WX    TMP DP  RH WIND       PRES   REMARKS
CHICAGO O`HARE MOCLDY    64  62  93 E9        29.92F
KANKAKEE       CLOUDY    77  62  59 SE12      29.95S
MOLINE         CLOUDY    71  65  81 S7        29.83F
MOUNT VERNON   MOCLDY    79  63  57 S12G20    29.98S HX  80
PITTSFIELD     HVY RAIN  69  66  90 S6        29.90F
QUINCY         CLOUDY    67  65  93 S8        29.86F
ROCKFORD       LGT RAIN  66  62  87 VRB3      29.92R FOG
$$


CITY           SKY/WX    TMP DP  RH WIND       PRES   REMARKS
BURLINGTON     MOCLDY    70  67  90 S10       29.84S
CEDAR RAPIDS   CLOUDY    67  67 100 S6        29.79F
DES MOINES     CLOUDY    68  63  84 S6        29.78S
KIRKSVILLE     CLOUDY    65  64  97 CALM      29.84F
OTTUMWA        CLOUDY    67  65  93 SW8       29.80F
ST LOUIS       CLOUDY    79  65  62 S17       29.90S HX  81
$$


CITY           SKY/WX    TMP DP  RH WIND       PRES   REMARKS
TERRE HAUTE    PTCLDY    77  61  57 SE14      30.01S
EVANSVILLE     MOCLDY    75  66  73 S8        30.03S
INDIANAPOLIS   MOCLDY    76  57  51 S12       30.04R
LAFAYETTE      CLEAR     75  60  59 S9        30.00R
MADISON        CLOUDY    58  56  93 E6        29.91F FOG
MILWAUKEE      LGT RAIN  55  51  86 SE6       29.94F
$$




USA.gov is the U.S. government's official web portal to all federal, state and local government web resources and services.